Tracking 35334 objects as of 12-Sep-2026
HD Live streaming from Space Station
objects crossing your sky now

SCOUT B DEB

Track SCOUT B DEB now!
10-day predictions


NORAD ID: 2800
Int'l Code: 1966-070D
Launch date: August 4, 1966
Source: United States (US)
Launch site: AIR FORCE WESTERN TEST RANGE (AFWTR)

Note: This is SATELLITE DEBRIS
Your satellite tracking list
Your tracking list is empty




NASA's NSSDC Master Catalog

Two Line Element Set (TLE):
1 02800U 66070D   26255.18054036  .00002466  00000-0  31679-3 0  9993
2 02800  81.4077 180.2908 1380138 217.9213 131.6439 12.44412446595598
Source of the keplerian elements: AFSPC